| time (UTC) | temp F | wind direction | speed knots | gust knots | rain 1hr in | rain 24hr in | rain mn in | humidity % | barometer mb |
| 20260504023007 | 45 | 344 | 0.0 | 4.3 | 0.00 | 0.50 | 0.05 | 91 | 1011.7 |
| 20260504021550 | 45 | 321 | 0.0 | 0.0 | 0.01 | 0.50 | 0.05 | 91 | 1011.7 |
| 20260504020038 | 45 | 305 | 0.0 | 2.6 | 0.04 | 0.50 | 0.05 | 93 | 1011.8 |
| 20260504014535 | 45 | 284 | 0.0 | 0.0 | 0.04 | 0.50 | 0.05 | 93 | 1011.9 |
| 20260504013033 | 45 | 284 | 0.0 | 0.0 | 0.04 | 0.50 | 0.05 | 94 | 1012.0 |
| 20260504011524 | 44 | 284 | 0.0 | 0.0 | 0.02 | 0.48 | 0.03 | 94 | 1012.2 |
| 20260504010018 | 44 | 284 | 0.0 | 0.0 | 0.00 | 0.46 | 0.01 | 94 | 1011.9 |
| 20260504004557 | 43 | 284 | 0.0 | 0.0 | 0.00 | 0.46 | 0.01 | 93 | 1012.0 |
| 20260504003035 | 43 | 284 | 0.0 | 0.0 | 0.00 | 0.46 | 0.01 | 93 | 1012.1 |
| 20260504001505 | 43 | 284 | 0.0 | 0.0 | 0.00 | 0.46 | 0.01 | 92 | 1012.3 |
| 20260504000044 | 43 | 284 | 0.0 | 0.0 | 0.00 | 0.46 | 0.01 | 92 | 1012.3 |
| 20260503234543 | 43 | 284 | 0.0 | 0.0 | 0.00 | 0.46 | 0.01 | 92 | 1012.4 |
| 20260503233020 | 43 | 284 | 0.0 | 0.0 | 0.00 | 0.46 | 0.01 | 92 | 1012.6 |
| 20260503231519 | 43 | 284 | 0.0 | 0.0 | 0.00 | 0.46 | 0.01 | 91 | 1012.7 |
| 20260503230048 | 44 | 284 | 0.0 | 0.0 | 0.01 | 0.46 | 0.01 | 91 | 1012.5 |
| 20260503224519 | 44 | 284 | 0.0 | 0.0 | 0.01 | 0.46 | 0.01 | 90 | 1012.7 |
| 20260503223058 | 45 | 284 | 0.0 | 0.0 | 0.06 | 0.46 | 0.01 | 90 | 1012.8 |
| 20260503221541 | 46 | 284 | 0.0 | 0.0 | 0.06 | 0.46 | 0.01 | 89 | 1012.8 |
| 20260503220029 | 47 | 284 | 0.0 | 0.0 | 0.06 | 0.46 | 0.46 | 86 | 1012.9 |
| 20260503214525 | 49 | 248 | 2.6 | 11.3 | 0.05 | 0.46 | 0.45 | 85 | 1013.1 |
| 20260503213022 | 48 | 286 | 0.0 | 0.0 | 0.00 | 0.41 | 0.40 | 90 | 1012.6 |
| 20260503211523 | 48 | 271 | 0.0 | 0.0 | 0.00 | 0.41 | 0.40 | 90 | 1012.4 |
| 20260503210056 | 48 | 271 | 0.0 | 0.0 | 0.02 | 0.61 | 0.40 | 90 | 1012.1 |
| 20260503204533 | 49 | 271 | 0.0 | 0.0 | 0.02 | 0.61 | 0.40 | 89 | 1012.2 |
| 20260503203004 | 50 | 271 | 0.0 | 0.0 | 0.02 | 0.61 | 0.40 | 87 | 1012.2 |
| 20260503201544 | 51 | 271 | 0.0 | 0.0 | 0.02 | 0.61 | 0.40 | 85 | 1011.9 |
| 20260503200016 | 51 | 294 | 0.0 | 3.5 | 0.00 | 0.59 | 0.39 | 83 | 1011.8 |
| 20260503194554 | 52 | 313 | 0.0 | 0.0 | 0.00 | 0.59 | 0.39 | 82 | 1011.5 |
| 20260503193026 | 52 | 313 | 0.0 | 2.6 | 0.00 | 0.59 | 0.39 | 81 | 1011.2 |
| 20260503191503 | 52 | 315 | 0.0 | 0.0 | 0.00 | 0.59 | 0.39 | 84 | 1011.2 |
| 20260503190045 | 52 | 314 | 0.0 | 0.0 | 0.00 | 0.73 | 0.39 | 85 | 1010.8 |
| 20260503184524 | 53 | 282 | 0.0 | 0.0 | 0.00 | 0.73 | 0.39 | 84 | 1010.6 |
| 20260503183111 | 53 | 282 | 0.0 | 0.9 | 0.01 | 0.73 | 0.39 | 83 | 1010.5 |
| 20260503181539 | 53 | 280 | 0.0 | 4.3 | 0.01 | 0.73 | 0.39 | 82 | 1010.5 |
| 20260503180018 | 52 | 318 | 0.0 | 0.0 | 0.02 | 0.74 | 0.39 | 85 | 1010.4 |
| 20260503174548 | 53 | 318 | 0.0 | 0.0 | 0.02 | 0.74 | 0.39 | 84 | 1010.3 |
| 20260503173021 | 53 | 318 | 0.0 | 3.5 | 0.02 | 0.73 | 0.38 | 84 | 1010.4 |
| 20260503171531 | 53 | 273 | 0.0 | 0.0 | 0.05 | 0.73 | 0.38 | 84 | 1010.3 |
| 20260503160104 | 54 | 238 | 0.0 | 2.6 | 0.00 | 0.69 | 0.33 | 82 | 1010.3 |
| 20260503081545 | 52 | 288 | 0.0 | 4.3 | 0.00 | 0.36 | 0.01 | 83 | 1013.1 |
| 20260503071609 | 50 | 287 | 0.0 | 4.3 | 0.00 | 0.36 | 0.01 | 86 | 1013.0 |
| 20260503054503 | 48 | 305 | 0.0 | 1.7 | 0.00 | 0.36 | 0.01 | 88 | 1013.0 |
| 20260503053044 | 47 | 322 | 0.0 | 2.6 | 0.00 | 0.36 | 0.01 | 89 | 1013.2 |
| 20260503051530 | 47 | 319 | 0.0 | 0.0 | 0.00 | 0.36 | 0.01 | 89 | 1013.0 |
| 20260503050024 | 47 | 306 | 0.0 | 0.0 | 0.00 | 0.36 | 0.01 | 90 | 1012.8 |
| 20260503044502 | 47 | 324 | 0.0 | 0.0 | 0.00 | 0.36 | 0.01 | 89 | 1012.9 |
| 20260503043037 | 47 | 324 | 0.0 | 0.0 | 0.00 | 0.36 | 0.01 | 89 | 1012.8 |
| 20260503041514 | 47 | 329 | 0.0 | 3.5 | 0.00 | 0.36 | 0.01 | 90 | 1012.9 |
| 20260503040048 | 48 | 326 | 0.0 | 0.0 | 0.00 | 0.36 | 0.01 | 88 | 1013.1 |
| 20260503034520 | 48 | 326 | 0.0 | 0.9 | 0.00 | 0.36 | 0.01 | 88 | 1013.4 |
| 20260503033102 | 48 | 336 | 0.0 | 0.9 | 0.00 | 0.36 | 0.01 | 89 | 1013.6 |
| 20260503031537 | 48 | 325 | 0.0 | 3.5 | 0.00 | 0.36 | 0.01 | 88 | 1013.5 |
| 20260503030013 | 48 | 315 | 0.0 | 0.0 | 0.00 | 0.36 | 0.01 | 89 | 1013.4 |
| 20260503024558 | 48 | 302 | 0.0 | 5.2 | 0.00 | 0.36 | 0.01 | 89 | 1013.5 |